Location: Bonn
(50.7330°N, 7.1000°E)
Time: 09:53:12
(UTC+01:00)

Daily predictions for brighter satellites

Satellite Brightness Start Highest point End
(mag) Time Altitude Azimuth Time Altitude Azimuth Time Altitude Azimuth
ALOS 2.8 18:37:32 10° SE 18:41:48 37° ENE 18:46:06 10° N
Cosmos 1536 Rocket 3.7 18:38:35 10° N 18:43:05 85° W 18:47:35 10° S
Okean 1-7 Rocket 4.0 18:41:53 10° N 18:46:13 41° ENE 18:50:28 10° SE
Cosmos 2219 4.1 18:41:34 10° SSE 18:46:17 27° ESE 18:51:00 10° NE
Cosmos 405 Rocket 4.2 18:43:57 10° NNE 18:47:01 20° ENE 18:50:02 10° ESE
Geosat 4.1 18:44:08 10° NNE 18:49:13 90° SW 18:54:15 10° SSW
SJ-6B 2.9 18:45:28 10° SSE 18:49:18 52° ENE 18:53:05 10° N
USA 186 3.6 18:54:51 11° ENE 18:55:26 11° ENE 18:56:25 10° NE
SL-16 R/B 3.6 18:51:23 10° NNW 18:55:39 21° NE 18:59:43 11° E
H-2A R/B 3.6 18:54:34 10° SE 18:57:50 29° ENE 19:01:10 10° N
CZ-2D R/B 4.4 18:54:58 10° ESE 18:58:05 24° ENE 19:01:12 10° N
Okean 2 4.2 18:57:20 10° N 19:01:04 30° ENE 19:04:47 10° SE
HJ-1C 3.7 18:58:34 10° SE 19:01:47 43° ENE 19:05:01 10° N
Helios 1B rocket 4.1 19:05:06 10° NE 19:07:25 14° E 19:09:43 10° ESE
Helios 1A 3.9 19:07:38 10° SE 19:11:13 29° ENE 19:14:49 10° N
Cosmos 1300 Rocket 3.5 19:08:07 10° S 19:12:32 76° E 19:17:01 10° NNE
Cosmos 1763 Rocket 4.4 19:09:04 10° N 19:13:35 30° NE 19:17:09 14° ESE
Cosmos 1833 4.2 19:09:33 10° SSW 19:15:15 86° ESE 19:20:56 10° NNE
USA 229 DEB 3.9 19:08:07 10° NW 19:15:15 85° SW 19:22:30 10° SE
USA 229 3.9 19:08:13 10° NW 19:15:21 86° SW 19:22:36 10° SE
Cosmos 407 Rocket 4.4 19:12:34 10° SW 19:17:44 53° WNW 19:22:59 10° NNE
Cosmos 2333 Rocket 2.3 19:12:41 10° NNW 19:18:23 57° NE 19:24:03 10° SE
Meteor 1-11 Rocket 3.8 19:12:51 10° S 19:18:41 75° E 19:24:39 10° NNE
COSMO-SKYMED 1 3.4 19:14:35 10° N 19:18:52 55° WNW 19:23:05 10° SSW
Cosmos 1536 2.8 19:15:07 10° S 19:19:01 55° E 19:22:55 10° NNE
Cosmos 2181 Rocket 4.3 19:12:58 10° NNW 19:19:13 74° W 19:25:31 10° S
Cosmos 1741 Rocket 4.1 19:14:16 10° S 19:19:19 53° ESE 19:24:24 10° NNE
Cosmos 1980 4.0 19:14:30 10° NNW 19:20:01 49° NE 19:25:11 11° SE
SL-19 R/B 4.4 19:14:34 10° SSE 19:20:20 71° ENE 19:26:36 10° NNW
Cosmos 1455 Rocket 4.4 19:19:46 17° E 19:20:40 18° E 19:23:37 10° NE
Cosmos 1939 Rocket 4.4 19:21:26 17° ENE 19:22:01 17° ENE 19:24:40 10° NNE
Abrixas rocket 3.9 19:22:44 10° SSW 19:25:15 20° SSE 19:26:08 18° SE
FREGAT/IRIS 3.5 19:22:29 10° S 19:25:30 53° W 19:28:34 10° NNW
NOSS 3-1 (A) 4.1 19:20:35 10° NW 19:27:42 58° NE 19:34:09 16° ESE
FENGYUN 3A 3.7 19:22:56 10° SSE 19:28:22 87° ENE 19:33:50 10° NNW
Cosmos 1140 Rocket 3.5 19:24:13 10° SSW 19:29:22 85° WNW 19:34:35 10° NNE
USA 215 3.6 19:23:51 10° ENE 19:30:15 65° NNW 19:36:42 10° W
Cosmos 614 Rocket 3.8 19:25:43 10° SSW 19:30:47 78° ESE 19:35:52 10° NNE
SAR-Lupe-4 3.8 19:27:35 10° SE 19:30:57 46° ENE 19:34:24 10° N
Resurs 01 Rocket 1.5 19:27:47 10° SSE 19:32:12 79° ENE 19:36:38 10° NNW
Cosmos 1602 4.3 19:28:51 10° SSW 19:32:42 60° WNW 19:36:37 10° N
Cosmos 1709 Rocket 4.4 19:26:36 10° SSW 19:32:46 68° WNW 19:38:53 10° N
ATLAS 2AS CENTAUR R/B 3.9 19:25:21 10° NW 19:32:51 38° NNE 19:38:18 17° ENE
NOSS 8 (F) 4.4 19:29:59 10° SW 19:33:27 74° SE 19:36:32 15° NE
Cosmos 1818 4.2 19:28:39 10° WSW 19:34:01 57° NW 19:39:27 10° NE
Cosmos 2074 Rocket 4.0 19:27:55 10° S 19:34:04 62° E 19:40:17 10° NNE
ATLAS CENTAUR R/B 3.8 19:33:51 10° NW 19:35:37 12° N 19:37:21 10° NNE
Cosmos 1437 3.2 19:36:46 10° N 19:39:55 39° ENE 19:40:39 34° ESE
Cosmos 2184 Rocket 3.9 19:33:58 10° S 19:40:11 66° E 19:46:22 10° NNE
SL-08 ROCKET BODY 4.4 19:35:09 10° S 19:41:20 76° E 19:47:31 10° NNE
Cosmos 468 Rocket 3.9 19:37:02 10° NNW 19:42:18 77° ENE 19:47:35 10° SSE
Resurs 1-3 3.5 19:38:53 10° SSE 19:43:16 85° ENE 19:47:41 10° NNW
NOSS 3-1 (C) 4.0 19:38:34 10° NW 19:45:53 78° NE 19:52:25 17° SE
CZ-4B DEB 3.3 19:48:38 37° ENE 19:48:38 37° ENE 19:51:19 10° N
Meteor 1-5 Rocket 4.2 19:42:51 10° S 19:48:47 71° E 19:54:36 10° NNE
Cosmos 1892 Rocket 3.4 19:47:34 10° N 19:51:57 74° E 19:56:19 10° SSE
Spot 2 Rocket 3.7 19:46:58 10° S 19:52:01 75° WSW 19:57:09 10° NNW
Nadezhda 3 Rocket 4.0 19:46:38 10° N 19:52:45 60° ENE 19:58:50 10° SSE
Okean 1 Rocket 3.7 19:48:30 10° SSW 19:52:56 58° WNW 19:57:24 10° N
Cosmos 1025 Rocket 3.7 19:51:02 10° NNW 19:55:22 57° W 19:59:40 10° S
NOSS 0 Rocket 4.0 19:50:44 10° NNW 19:56:55 82° WSW 20:02:53 11° SSE
Cosmos 1814 Rocket 3.9 19:57:52 10° NNW 20:03:05 86° ENE 20:06:42 20° SSE
Cosmos 2237 Rocket 2.1 19:59:19 10° NNW 20:05:04 87° ENE 20:08:56 22° SSE
ERS-1 Rocket 3.5 20:05:11 35° E 20:05:52 37° ENE 20:10:29 10° N
Cosmos 332 Rocket 3.8 20:02:43 10° NNW 20:07:36 60° ENE 20:09:10 40° ESE
ARGOS 4.5 20:08:15 22° NE 20:08:15 22° NE 20:12:07 10° N
Cosmos 2341 Rocket 4.3 20:02:06 10° SSE 20:08:06 46° E 20:14:09 10° NNE
COSMOS 2428 4.2 20:03:07 10° NW 20:08:15 35° WSW 20:13:21 10° S
Cosmos 1850 Rocket 4.4 20:03:12 10° SW 20:08:29 66° WNW 20:13:51 10° NNE
Envisat 3.0 20:06:15 31° SE 20:08:30 57° ENE 20:13:29 10° N
Spot 1 4.1 20:05:43 13° S 20:09:18 76° WSW 20:13:34 10° NNW
Cosmos 1066 Rocket 4.2 20:03:48 10° N 20:09:26 59° ENE 20:12:06 30° SE
Cosmos 2154 Rocket 4.0 20:03:25 10° S 20:09:38 60° E 20:15:51 10° NNE
USA 32 4.1 20:04:29 10° N 20:09:38 54° E 20:11:45 33° SE
Cosmos 1515 3.5 20:07:51 10° N 20:11:44 81° ENE 20:12:47 47° SSE
Cosmos 2297 Rocket 3.9 20:07:04 10° SSE 20:08:19 16° SSE 20:08:19 16° SSE
Meteor 1-12 Rocket 4.4 20:08:04 10° SSE 20:13:49 52° E 20:19:30 10° NNE
Cosmos 371 Rocket 3.4 20:12:40 10° NNW 20:17:31 58° ENE 20:18:18 51° E
Cosmos 2219 Rocket 3.0 20:12:07 10° NW 20:17:31 50° WSW 20:22:55 10° S
Gbstr 26 Del rocket 2.5 20:14:10 10° WSW 20:17:54 73° SSE 20:17:56 73° SSE
ALOS 4.1 20:15:07 10° SSW 20:19:18 32° W 20:23:31 10° NNW
Cosmos 1544 Rocket 3.3 20:16:10 10° S 20:20:30 79° E 20:24:51 10° NNE
Cosmos 405 Rocket 3.8 20:19:26 10° NNW 20:23:21 47° W 20:27:13 10° S
USA 186 2.8 20:26:15 41° WNW 20:26:15 41° WNW 20:28:31 10° NNW
Cosmos 2219 3.7 20:24:20 10° SW 20:30:03 63° NW 20:35:46 10° NNE
Cosmos 1602 Rocket 3.5 20:26:10 10° N 20:30:18 64° NE 20:30:18 64° NE
SJ-11-01 4.2 20:29:24 50° SSE 20:30:40 84° ENE 20:35:28 10° NNW
Cosmos 2227 Rocket 2.2 20:26:41 10° S 20:32:08 54° ESE 20:32:08 54° ESE
Cosmos 1626 Rocket 3.5 20:31:11 10° N 20:35:30 75° NE 20:35:30 75° NE
Meteor 2-8 Rocket 4.3 20:33:26 10° N 20:39:32 86° E 20:42:18 35° SSE
Aureole 2 Rocket 3.9 20:36:28 10° NNW 20:38:27 31° NNW 20:38:27 31° NNW
Cosmos 962 Rocket 4.3 20:34:08 10° S 20:40:18 75° E 20:46:26 10° NNE
SL-16 R/B 2.1 20:35:01 10° NNW 20:40:45 77° ENE 20:41:38 63° ESE
Helios 1B rocket 2.7 20:39:03 10° N 20:43:12 69° WNW 20:47:19 10° SSW
Cosmos 841 Rocket 3.5 20:39:44 10° NNW 20:44:54 74° WSW 20:45:59 54° S
Meteor 2-19 Rocket 4.4 20:45:40 60° ESE 20:45:52 60° E 20:51:56 10° NNE
H-2A R/B 3.6 20:48:45 24° NNE 20:48:45 24° NNE 20:51:46 10° N
Terra 4.1 20:50:36 12° NNE 20:50:36 12° NNE 20:51:16 10° NNE
Cosmos 1441 Rocket 4.2 20:48:51 10° NNW 20:52:40 46° W 20:52:48 46° WSW
Cosmos 1763 Rocket 4.1 20:50:41 10° NNW 20:55:40 51° WSW 20:57:14 37° SSW
Cosmos 1939 Rocket 3.7 20:57:21 48° NW 20:57:21 48° NW 21:00:32 10° NNW
Cosmos 1455 Rocket 3.6 20:56:16 32° SW 20:58:05 55° WNW 21:02:23 10° N
Cosmos 540 Rocket 3.7 20:55:29 10° NNW 20:59:48 60° N 20:59:48 60° N
Cosmos 2333 Rocket 3.9 20:57:26 10° NW 21:02:21 30° WSW 21:06:44 12° SSW
GEOS 3 Rocket 3.6 21:04:55 78° N 21:05:12 81° NW 21:10:29 10° SW
MetOp-A 4.3 21:07:12 61° NNE 21:07:12 61° NNE 21:11:41 10° NNW
USA 215 3.7 21:11:12 42° NE 21:12:50 52° N 21:19:07 10° WNW
ATLAS CENTAUR R/B 4.0 21:14:10 10° NNW 21:15:07 13° N 21:15:07 13° N
SL-8 Rocket 4.0 21:24:08 80° N 21:24:08 80° N 21:30:07 10° N
ATLAS 2AS CENTAUR R/B 2.9 21:16:58 10° NW 21:25:09 75° NE 21:25:45 72° E
SPOT 5 4.0 21:27:14 41° NNW 21:27:14 41° NNW 21:30:35 10° NNW
ERS-1 Rocket 4.3 21:45:10 36° W 21:45:10 36° W 21:49:20 10° NNW
ARGOS 4.3 21:49:45 40° NNW 21:49:45 40° NNW 21:53:11 10° NNW
Cosmos 2237 Rocket 4.5 21:44:38 10° WNW 21:48:22 18° W 21:50:49 14° SW
Cosmos 2227 Rocket 4.0 22:11:21 10° WSW 22:22:30 - NNE 22:14:15 26° W
SL-16 R/B 4.3 22:20:07 10° NW 22:23:33 21° W 22:23:33 21° W
H-2A R/B 4.1 22:29:23 25° NNW 22:29:23 25° NNW 22:31:43 10° NNW
ATLAS 2AS CENTAUR R/B 4.4 23:08:33 10° NW 23:13:12 30° W 23:13:12 30° W
